SCP
0 0 0 0 -0 0 0 -0 -0 0 0 0 0 0 0 0 0 0 0 0 0 0 0 0 0 0 0 0 0 0 0 0 0 0 0 0 0 0
0 0 -0 -0 -0 -0 -0 -0 -0 -0 0 0 0 0 0 0 0 0 0 0 0 0 0 0 0 0 0 0 0 0 0 0 0 0 0 0 0 0
0 0 0 -0 -0 -0 0 0 0 0 0 0 0 0 0 0 0 0 0 0 0 0 0 0 0 0 0 0 0 0 0 0 0 0 0 0 0 0
0 0 0 0 0 -0 0 -0 0 0 0 0 0 0 0 0 0 0 0 0 0 0 0 0 0 0 0 0 0 0 0 0 0 0 0 0 0 0
-0 -0 -0 -0 -0 -0 -0 -0 0 0 0 0 0 0 0 0 0 0 0 0 0 0 0 0 0 0 0 0 0 0 0 0 0 0 0 0 0 0
-0 -0 -0 -0 -0 -0 -0 -0 0 0 0 0 0 0 0 0 0 0 0 0 0 0 0 0 0 0 0 0 0 0 0 0 0 0 0 0 0 0
-0 -0 -0 -0 -0 0 0 0 0 0 0 0 0 0 0 0 0 0 0 0 0 0 0 0 0 0 0 0 0 0 0 0 0 0 0 0 0 0
-0 -0 -0 -0 -0 0 0 0 0 0 0 0 0 0 0 0 0 0 0 0 0 0 0 0 0 0 0 0 0 0 0 0 0 0 0 0 0 0
-0 -0 -0 0 0 0 0 0 0 0 0 0 0 0 0 0 0 0 0 0 0 0 0 0 0 0 0 0 0 0 0 0 0 0 0 0 0 0
0 0 0 0 0 0 0 0 0 0 0 0 0 0 0 0 0 0 0 0 0 0 0 0 0 0 0 0 0 0 0 0 0 0 0 0 0 0
0 0 0 0 0 0 0 0 0 0 0 0 0 0 0 0 0 0 0 -0 0 0 0 0 0 0 0 0 0 0 0 0 0 0 0 0 0 0
0 0 0 0 0 0 0 0 0 0 0 0 0 0 0 0 -0 -0 -0 0 0 -0 0 0 0 0 0 0 0 0 0 0 0 0 0 0 0 0
0 0 0 0 0 0 0 0 0 0 0 0 0 0 0 0 0 0 0 -0 -0 0 0 0 0 0 0 0 0 0 0 0 0 0 0 0 0 0
0 0 0 0 0 0 0 0 0 0 0 0 -0 -0 -0 -0 0 0 0 0 0 -0 0 0 0 0 0 0 0 0 0 0 0 0 0 0 0 0
0 0 0 0 0 0 0 0 0 0 -0 -0 0 -0 -0 -0 -0 0 0 -0 0 0 0 0 0 0 0 0 0 0 0 0 0 0 0 0 0 0
0 0 0 0 0 0 0 0 0 0 -0 -0 -0 -0 0 0 -0 -0 -0 -0 -0 0 0 -0 -0 0 0 0 0 0 0 0 0 0 0 0 0 0
0 0 0 0 0 0 0 0 0 -0 -0 -0 -0 0 0 -0 -0 -0 -0 -0 -0 -0 0 0 -0 0 0 0 0 0 0 0 0 0 0 0 0 0
0 0 0 0 0 0 0 0 0 -0 -0 -0 0 0 0 -0 -0 -0 -0 -0 -0 -0 -0 0 0 -0 0 0 0 0 0 0 0 0 0 0 0 0
0 0 0 0 0 0 0 0 -0 -0 -0 -0 0 0 -0 -0 -0 -0 -0 -0 -0 -0 -0 0 0 0 0 0 0 0 0 0 0 0 0 0 0 0
0 0 0 0 0 0 0 -0 -0 -0 -0 -0 0 -0 -0 -0 -0 -0 -0 -0 -0 -0 0 0 0 0 0 0 0 0 0 0 0 0 0 0 0 0
0 0 0 0 0 0 0 -0 -0 -0 -0 0 0 -0 -0 -0 -0 -0 -0 -0 -0 0 0 0 0 0 0 0 0 0 0 0 0 0 0 0 0 0
0 0 0 0 0 0 0 -0 -0 -0 -0 0 0 0 -0 0 0 -0 -0 -0 -0 0 -0 0 0 0 0 0 0 0 0 0 0 0 0 0 0 0
0 0 0 0 0 0 -0 -0 -0 -0 0 0 0 0 -0 0 0 0 -0 -0 -0 0 0 0 0 0 0 0 0 0 0 0 0 0 0 0 0 0
Wind_Speed_500mb
27 30 30 30 27 26 25 21 18 28 51 44 51 59 61 64 67 70 71 72 70 62 57 63 69 71 74 79 80 90 90 77 75 74 84 78 70 63
30 31 32 34 30 22 23 21 22 29 39 55 65 65 69 70 70 74 75 82 78 71 65 61 64 70 75 77 85 83 88 93 94 82 89 83 75 70
33 35 37 39 36 31 28 27 30 34 49 63 60 68 76 77 75 76 77 80 74 75 76 70 66 67 72 80 85 95 90 95 94 88 87 88 80 74
36 38 39 41 42 37 31 34 40 42 47 67 64 68 71 78 80 79 76 76 79 83 82 82 73 68 69 73 82 88 103 94 102 98 93 99 85 79
40 43 45 45 43 38 38 39 43 48 52 62 72 71 70 69 84 83 78 69 70 79 78 81 82 71 66 69 75 88 96 109 92 102 93 98 97 86
43 45 46 48 44 40 40 43 48 53 54 60 71 72 65 76 76 86 99 79 78 74 86 89 82 70 68 64 70 78 93 106 109 97 98 99 104 93
42 47 49 49 50 53 49 53 52 52 58 64 67 70 71 72 74 86 93 100 106 95 86 77 64 58 58 58 63 74 80 96 109 98 89 87 96 79
45 50 55 56 54 61 63 65 55 58 62 66 74 69 76 74 77 81 93 92 106 97 78 102 79 86 75 69 64 62 57 80 93 100 83 74 95 81
45 53 57 48 61 58 56 60 58 58 62 62 72 66 76 74 82 90 86 94 102 100 101 119 96 97 79 65 66 58 55 59 79 97 81 79 97 88
46 54 59 61 58 65 70 64 62 61 59 60 68 76 72 78 77 81 85 95 100 93 89 112 93 90 74 61 59 55 53 53 65 87 84 81 104 92
48 54 54 57 59 64 70 67 69 66 66 76 72 71 70 67 68 70 84 88 98 94 90 87 85 81 72 60 57 46 47 58 68 79 78 93 107 87
48 45 50 53 59 63 67 65 69 74 86 83 75 70 66 67 70 70 82 86 92 94 80 53 63 63 51 48 56 46 48 57 57 66 76 92 103 88
42 48 45 55 60 64 63 60 66 80 77 73 73 72 73 76 77 83 82 82 93 97 91 77 62 58 59 35 36 46 47 53 58 57 71 99 89 80
52 46 48 57 64 63 63 61 67 64 68 67 67 71 76 81 82 88 83 73 67 74 69 58 58 51 44 51 47 44 47 50 56 68 84 86 79 72
49 51 56 60 60 51 52 55 55 53 60 66 68 69 74 79 82 91 81 69 48 34 37 39 44 48 26 48 42 37 49 50 61 75 80 81 76 65
43 46 47 49 48 51 49 46 47 49 60 65 70 71 71 78 81 89 92 83 64 36 22 25 38 47 40 48 44 58 63 57 80 89 88 76 70 62
54 41 42 44 46 48 47 46 47 50 54 62 69 72 70 73 79 84 88 77 72 57 19 21 30 27 32 39 41 59 75 67 87 87 85 78 68 58
43 38 40 42 46 48 48 49 47 51 54 57 62 68 69 69 74 78 84 80 70 69 42 14 24 21 27 35 45 59 67 79 87 85 80 76 65 59
31 34 37 42 45 45 46 46 49 49 48 54 57 65 70 63 65 73 77 80 75 57 59 24 6 21 33 31 35 61 78 82 85 78 74 64 59 46
30 34 39 41 42 44 43 44 46 48 45 52 54 57 65 60 57 64 69 73 70 67 56 52 32 29 35 36 42 46 70 93 88 76 70 64 57 47
32 35 37 40 40 41 41 42 43 47 55 48 50 53 59 56 48 52 58 60 63 58 60 60 38 32 49 58 63 67 66 75 66 68 62 53 48 39
34 38 39 40 40 39 40 42 42 42 46 46 47 48 55 54 47 46 48 53 54 53 46 43 41 21 30 59 63 69 66 60 56 56 48 41 35 21
37 39 41 40 38 38 40 42 42 42 42 44 43 46 49 49 44 39 39 40 43 44 43 41 35 42 39 31 25 31 36 38 39 37 33 27 25 21
Wind_Direction_500mb
13 7 4 358 351 334 331 327 325 324 319 316 322 319 321 322 322 323 317 312 306 296 287 282 281 276 268 255 247 245 244 249 253 238 241 252 249 248
13 8 3 359 353 330 319 315 304 296 285 308 312 313 318 319 320 320 317 315 311 304 298 290 281 274 271 263 246 241 238 237 244 245 237 243 243 243
6 3 359 356 350 341 322 310 304 296 290 299 303 312 313 315 316 317 318 315 310 306 304 299 290 279 270 264 257 241 240 237 236 239 247 241 236 237
5 359 355 351 347 341 327 315 306 303 295 299 303 307 307 313 313 315 317 314 308 308 306 303 295 285 278 268 260 253 237 239 234 237 240 245 233 233
6 359 354 348 345 336 330 320 310 308 302 296 298 301 305 307 311 315 313 309 308 307 306 302 297 293 284 277 265 253 245 235 236 231 240 245 232 229
3 357 352 348 342 332 329 321 315 310 305 301 299 302 301 302 306 313 315 309 307 305 303 306 300 291 283 276 272 262 246 238 234 235 230 241 247 219
356 351 347 343 338 333 330 323 319 314 308 303 302 300 298 302 301 306 304 309 309 310 306 302 297 290 284 284 284 267 252 241 233 233 232 237 235 213
345 344 343 340 335 331 329 328 320 313 308 302 299 296 297 297 300 301 302 301 299 308 302 297 293 292 282 277 283 269 248 243 237 228 232 232 227 214
336 339 337 332 333 327 324 323 318 311 308 301 297 296 298 302 300 302 299 296 292 297 298 295 298 294 289 278 283 252 236 245 233 222 227 226 219 217
332 336 332 331 330 327 323 322 319 315 311 306 305 306 303 304 303 304 302 301 298 294 293 288 297 292 292 275 272 250 235 240 236 221 222 224 218 214
325 330 326 325 327 325 321 322 319 317 317 317 314 311 309 307 312 313 308 299 294 291 292 286 289 286 285 272 259 245 235 243 230 219 219 213 213 206
315 317 321 326 324 325 320 321 319 321 323 322 319 317 318 318 321 322 317 297 294 292 293 291 290 274 270 267 246 243 243 225 219 213 215 211 202 197
309 315 315 320 322 322 318 318 317 323 326 324 321 324 326 326 326 326 322 310 296 282 283 280 265 268 245 258 254 242 239 229 223 216 220 197 190 187
314 314 315 317 319 318 316 314 321 328 332 330 326 324 329 331 328 331 330 322 307 291 278 264 249 258 232 247 253 240 227 228 216 208 191 184 185 185
312 313 315 316 320 319 314 322 334 326 331 331 328 326 329 332 335 340 342 346 342 299 267 241 227 234 243 228 225 218 197 199 202 189 175 170 172 176
314 315 315 323 324 322 324 322 321 325 330 334 333 331 330 337 342 348 353 358 2 340 298 229 230 225 243 253 236 218 195 170 177 171 166 167 170 173
319 317 316 320 322 324 324 324 322 327 329 332 337 336 334 341 346 353 1 4 5 9 326 244 188 210 236 264 209 195 187 177 174 167 164 165 163 171
319 315 317 321 322 323 324 325 326 326 330 332 333 340 340 342 349 355 3 8 13 19 34 108 193 215 211 215 230 190 175 169 170 165 164 161 163 172
316 318 320 321 322 322 322 324 326 325 330 331 332 337 344 344 349 356 1 9 15 23 33 52 181 186 162 148 161 181 173 167 167 165 162 165 161 165
319 320 320 320 321 321 322 324 326 325 327 331 332 337 343 344 345 351 360 6 12 20 31 45 70 104 128 130 124 148 178 169 168 157 158 166 172 173
322 321 321 320 320 319 320 323 325 325 326 332 332 337 341 343 341 343 356 5 12 21 25 29 40 80 107 127 116 128 141 159 160 161 162 167 163 166
323 322 321 320 318 317 319 322 323 326 326 329 330 335 340 343 339 340 347 356 6 14 31 39 42 75 105 104 106 114 128 140 147 150 154 157 154 162
321 320 320 319 318 316 318 320 320 323 326 324 330 331 336 337 338 336 339 346 359 9 17 35 50 65 96 126 120 111 118 129 132 135 135 143 150 153
Wind_Speed_850mb
27 30 30 30 27 26 25 21 18 28 51 44 51 59 61 64 67 70 71 72 70 62 57 63 69 71 74 79 80 90 90 77 75 74 84 78 70 63
30 31 32 34 30 22 23 21 22 29 39 55 65 65 69 70 70 74 75 82 78 71 65 61 64 70 75 77 85 83 88 93 94 82 89 83 75 70
33 35 37 39 36 31 28 27 30 34 49 63 60 68 76 77 75 76 77 80 74 75 76 70 66 67 72 80 85 95 90 95 94 88 87 88 80 74
36 38 39 41 42 37 31 34 40 42 47 67 64 68 71 78 80 79 76 76 79 83 82 82 73 68 69 73 82 88 103 94 102 98 93 99 85 79
40 43 45 45 43 38 38 39 43 48 52 62 72 71 70 69 84 83 78 69 70 79 78 81 82 71 66 69 75 88 96 109 92 102 93 98 97 86
43 45 46 48 44 40 40 43 48 53 54 60 71 72 65 76 76 86 99 79 78 74 86 89 82 70 68 64 70 78 93 106 109 97 98 99 104 93
42 47 49 49 50 53 49 53 52 52 58 64 67 70 71 72 74 86 93 100 106 95 86 77 64 58 58 58 63 74 80 96 109 98 89 87 96 79
45 50 55 56 54 61 63 65 55 58 62 66 74 69 76 74 77 81 93 92 106 97 78 102 79 86 75 69 64 62 57 80 93 100 83 74 95 81
45 53 57 48 61 58 56 60 58 58 62 62 72 66 76 74 82 90 86 94 102 100 101 119 96 97 79 65 66 58 55 59 79 97 81 79 97 88
46 54 59 61 58 65 70 64 62 61 59 60 68 76 72 78 77 81 85 95 100 93 89 112 93 90 74 61 59 55 53 53 65 87 84 81 104 92
48 54 54 57 59 64 70 67 69 66 66 76 72 71 70 67 68 70 84 88 98 94 90 87 85 81 72 60 57 46 47 58 68 79 78 93 107 87
48 45 50 53 59 63 67 65 69 74 86 83 75 70 66 67 70 70 82 86 92 94 80 53 63 63 51 48 56 46 48 57 57 66 76 92 103 88
42 48 45 55 60 64 63 60 66 80 77 73 73 72 73 76 77 83 82 82 93 97 91 77 62 58 59 35 36 46 47 53 58 57 71 99 89 80
52 46 48 57 64 63 63 61 67 64 68 67 67 71 76 81 82 88 83 73 67 74 69 58 58 51 44 51 47 44 47 50 56 68 84 86 79 72
49 51 56 60 60 51 52 55 55 53 60 66 68 69 74 79 82 91 81 69 48 34 37 39 44 48 26 48 42 37 49 50 61 75 80 81 76 65
43 46 47 49 48 51 49 46 47 49 60 65 70 71 71 78 81 89 92 83 64 36 22 25 38 47 40 48 44 58 63 57 80 89 88 76 70 62
54 41 42 44 46 48 47 46 47 50 54 62 69 72 70 73 79 84 88 77 72 57 19 21 30 27 32 39 41 59 75 67 87 87 85 78 68 58
43 38 40 42 46 48 48 49 47 51 54 57 62 68 69 69 74 78 84 80 70 69 42 14 24 21 27 35 45 59 67 79 87 85 80 76 65 59
31 34 37 42 45 45 46 46 49 49 48 54 57 65 70 63 65 73 77 80 75 57 59 24 6 21 33 31 35 61 78 82 85 78 74 64 59 46
30 34 39 41 42 44 43 44 46 48 45 52 54 57 65 60 57 64 69 73 70 67 56 52 32 29 35 36 42 46 70 93 88 76 70 64 57 47
32 35 37 40 40 41 41 42 43 47 55 48 50 53 59 56 48 52 58 60 63 58 60 60 38 32 49 58 63 67 66 75 66 68 62 53 48 39
34 38 39 40 40 39 40 42 42 42 46 46 47 48 55 54 47 46 48 53 54 53 46 43 41 21 30 59 63 69 66 60 56 56 48 41 35 21
37 39 41 40 38 38 40 42 42 42 42 44 43 46 49 49 44 39 39 40 43 44 43 41 35 42 39 31 25 31 36 38 39 37 33 27 25 21
Wind_Direction_850mb
13 7 4 358 351 334 331 327 325 324 319 316 322 319 321 322 322 323 317 312 306 296 287 282 281 276 268 255 247 245 244 249 253 238 241 252 249 248
13 8 3 359 353 330 319 315 304 296 285 308 312 313 318 319 320 320 317 315 311 304 298 290 281 274 271 263 246 241 238 237 244 245 237 243 243 243
6 3 359 356 350 341 322 310 304 296 290 299 303 312 313 315 316 317 318 315 310 306 304 299 290 279 270 264 257 241 240 237 236 239 247 241 236 237
5 359 355 351 347 341 327 315 306 303 295 299 303 307 307 313 313 315 317 314 308 308 306 303 295 285 278 268 260 253 237 239 234 237 240 245 233 233
6 359 354 348 345 336 330 320 310 308 302 296 298 301 305 307 311 315 313 309 308 307 306 302 297 293 284 277 265 253 245 235 236 231 240 245 232 229
3 357 352 348 342 332 329 321 315 310 305 301 299 302 301 302 306 313 315 309 307 305 303 306 300 291 283 276 272 262 246 238 234 235 230 241 247 219
356 351 347 343 338 333 330 323 319 314 308 303 302 300 298 302 301 306 304 309 309 310 306 302 297 290 284 284 284 267 252 241 233 233 232 237 235 213
345 344 343 340 335 331 329 328 320 313 308 302 299 296 297 297 300 301 302 301 299 308 302 297 293 292 282 277 283 269 248 243 237 228 232 232 227 214
336 339 337 332 333 327 324 323 318 311 308 301 297 296 298 302 300 302 299 296 292 297 298 295 298 294 289 278 283 252 236 245 233 222 227 226 219 217
332 336 332 331 330 327 323 322 319 315 311 306 305 306 303 304 303 304 302 301 298 294 293 288 297 292 292 275 272 250 235 240 236 221 222 224 218 214
325 330 326 325 327 325 321 322 319 317 317 317 314 311 309 307 312 313 308 299 294 291 292 286 289 286 285 272 259 245 235 243 230 219 219 213 213 206
315 317 321 326 324 325 320 321 319 321 323 322 319 317 318 318 321 322 317 297 294 292 293 291 290 274 270 267 246 243 243 225 219 213 215 211 202 197
309 315 315 320 322 322 318 318 317 323 326 324 321 324 326 326 326 326 322 310 296 282 283 280 265 268 245 258 254 242 239 229 223 216 220 197 190 187
314 314 315 317 319 318 316 314 321 328 332 330 326 324 329 331 328 331 330 322 307 291 278 264 249 258 232 247 253 240 227 228 216 208 191 184 185 185
312 313 315 316 320 319 314 322 334 326 331 331 328 326 329 332 335 340 342 346 342 299 267 241 227 234 243 228 225 218 197 199 202 189 175 170 172 176
314 315 315 323 324 322 324 322 321 325 330 334 333 331 330 337 342 348 353 358 2 340 298 229 230 225 243 253 236 218 195 170 177 171 166 167 170 173
319 317 316 320 322 324 324 324 322 327 329 332 337 336 334 341 346 353 1 4 5 9 326 244 188 210 236 264 209 195 187 177 174 167 164 165 163 171
319 315 317 321 322 323 324 325 326 326 330 332 333 340 340 342 349 355 3 8 13 19 34 108 193 215 211 215 230 190 175 169 170 165 164 161 163 172
316 318 320 321 322 322 322 324 326 325 330 331 332 337 344 344 349 356 1 9 15 23 33 52 181 186 162 148 161 181 173 167 167 165 162 165 161 165
319 320 320 320 321 321 322 324 326 325 327 331 332 337 343 344 345 351 360 6 12 20 31 45 70 104 128 130 124 148 178 169 168 157 158 166 172 173
322 321 321 320 320 319 320 323 325 325 326 332 332 337 341 343 341 343 356 5 12 21 25 29 40 80 107 127 116 128 141 159 160 161 162 167 163 166
323 322 321 320 318 317 319 322 323 326 326 329 330 335 340 343 339 340 347 356 6 14 31 39 42 75 105 104 106 114 128 140 147 150 154 157 154 162
321 320 320 319 318 316 318 320 320 323 326 324 330 331 336 337 338 336 339 346 359 9 17 35 50 65 96 126 120 111 118 129 132 135 135 143 150 153